Location: Eaton
(41.3139°N, 82.0207°W)
Time: 13:26:42
(UTC+00:00)

BREEZE-M DEB (TANK) - Pass Details

Date: 17 June 2021
Orbit: 333 x 16573 km, 49.3° (Epoch: 30 July)

Event Time Altitude Azimuth Distance (km) Brightness Sun altitude
Rises 09:08:12 0° 304° (NW) 2,143 5.2 -7.8°
Reaches altitude 10° 09:09:55 10° 313° (NW) 1,277 4.1 -7.5°
Maximum altitude 09:12:08 40° 28° (NNE) 604 3.2 -7.2°
Drops below altitude 10° 09:15:49 10° 101° (E) 2,127 5.9 -6.7°
Sets 09:19:42 0° 108° (ESE) 4,059 7.2 -6.1°
